When you browse on this site, cookies collect data to enhance your experience and personalize the content and advertising you see.
Visit our Privacy Policy to learn more. By continuing to use the site, you agree to this use of cookies and data.
  • en Suisse
  • Liste des pays
  • À 7 jours
  • Température de l'eau
  • Carte météo
  • Widgets météo
  • user-avatar
    Se connecter

    Météo par heure à Dinajpur

    Ce jour, 28 Janvier, Mardi

    Heure Température Précipitation Vent Pression Humidité
    00:00 +17°C° 0 mm 2 m/s 757 mmHg 64%
    01:00 +16°C° 0 mm 2 m/s 757 mmHg 66%
    02:00 +16°C° 0 mm 2 m/s 757 mmHg 68%
    03:00 +16°C° 0 mm 2 m/s 756 mmHg 70%
    04:00 +15°C° 0 mm 1 m/s 756 mmHg 72%
    05:00 +15°C° 0 mm 1 m/s 756 mmHg 74%
    06:00 +13°C° 0 mm 0 m/s 757 mmHg 79%
    07:00 +15°C° 0 mm 0 m/s 758 mmHg 74%
    08:00 +16°C° 0 mm 0 m/s 758 mmHg 68%
    09:00 +20°C° 0 mm 1 m/s 759 mmHg 62%
    10:00 +21°C° 0 mm 1 m/s 759 mmHg 56%
    11:00 +21°C° 0 mm 0 m/s 758 mmHg 50%
    12:00 +23°C° 0 mm 0 m/s 758 mmHg 44%
    13:00 +25°C° 0 mm 1 m/s 758 mmHg 41%
    14:00 +26°C° 0 mm 2 m/s 757 mmHg 39%
    15:00 +27°C° 0 mm 2 m/s 757 mmHg 36%
    16:00 +26°C° 0 mm 2 m/s 756 mmHg 38%
    17:00 +25°C° 0 mm 2 m/s 756 mmHg 40%
    18:00 +24°C° 0 mm 2 m/s 756 mmHg 43%
    19:00 +23°C° 0 mm 2 m/s 757 mmHg 45%
    20:00 +21°C° 0 mm 2 m/s 757 mmHg 47%
    21:00 +21°C° 0 mm 2 m/s 758 mmHg 49%
    22:00 +20°C° 0 mm 2 m/s 758 mmHg 51%
    23:00 +20°C° 0 mm 2 m/s 758 mmHg 52%

    Demain, 29 Janvier, Mercredi

    Heure Température Précipitation Vent Pression Humidité
    00:00 +19°C° 0 mm 2 m/s 758 mmHg 54%
    01:00 +19°C° 0 mm 2 m/s 758 mmHg 55%
    02:00 +19°C° 0 mm 2 m/s 758 mmHg 56%
    03:00 +19°C° 0 mm 1 m/s 758 mmHg 57%
    04:00 +18°C° 0 mm 2 m/s 758 mmHg 58%
    05:00 +18°C° 0 mm 2 m/s 758 mmHg 59%
    06:00 +18°C° 0 mm 2 m/s 759 mmHg 60%
    07:00 +18°C° 0 mm 2 m/s 759 mmHg 58%
    08:00 +19°C° 0 mm 3 m/s 760 mmHg 57%
    09:00 +20°C° 0 mm 3 m/s 760 mmHg 55%
    10:00 +22°C° 0 mm 3 m/s 760 mmHg 50%
    11:00 +24°C° 0 mm 3 m/s 760 mmHg 44%
    12:00 +26°C° 0 mm 4 m/s 759 mmHg 39%
    13:00 +27°C° 0 mm 3 m/s 759 mmHg 38%
    14:00 +27°C° 0 mm 3 m/s 758 mmHg 36%
    15:00 +28°C° 0 mm 2 m/s 757 mmHg 34%
    16:00 +27°C° 0 mm 2 m/s 757 mmHg 37%
    17:00 +26°C° 0 mm 2 m/s 756 mmHg 40%
    18:00 +24°C° 0 mm 2 m/s 756 mmHg 44%
    19:00 +24°C° 0 mm 2 m/s 757 mmHg 45%
    20:00 +23°C° 0 mm 2 m/s 757 mmHg 47%
    21:00 +22°C° 0 mm 3 m/s 758 mmHg 48%
    22:00 +21°C° 0 mm 3 m/s 758 mmHg 50%
    23:00 +21°C° 0 mm 3 m/s 757 mmHg 52%

    Après-demain, 30 Janvier, Jeudi

    Heure Température Précipitation Vent Pression Humidité
    00:00 +20°C° 0 mm 3 m/s 757 mmHg 54%
    01:00 +20°C° 0.1 mm 3 m/s 757 mmHg 55%
    02:00 +19°C° 0.1 mm 3 m/s 757 mmHg 57%
    03:00 +19°C° 0.1 mm 3 m/s 756 mmHg 58%
    04:00 +18°C° 0.1 mm 2 m/s 756 mmHg 61%
    05:00 +18°C° 0.1 mm 2 m/s 757 mmHg 64%
    06:00 +18°C° 0.1 mm 2 m/s 757 mmHg 66%
    07:00 +19°C° 0.1 mm 2 m/s 757 mmHg 63%
    08:00 +20°C° 0.1 mm 3 m/s 758 mmHg 60%
    09:00 +21°C° 0.1 mm 3 m/s 759 mmHg 56%
    10:00 +24°C° 0 mm 3 m/s 758 mmHg 53%
    11:00 +25°C° 0 mm 3 m/s 758 mmHg 50%
    12:00 +27°C° 0 mm 3 m/s 758 mmHg 46%
    13:00 +27°C° 0 mm 2 m/s 757 mmHg 43%
    14:00 +28°C° 0 mm 1 m/s 756 mmHg 40%
    15:00 +27°C° 0 mm 0 m/s 755 mmHg 38%
    16:00 +28°C° 0 mm 1 m/s 755 mmHg 40%
    17:00 +27°C° 0 mm 1 m/s 755 mmHg 42%
    18:00 +25°C° 0 mm 2 m/s 755 mmHg 45%
    19:00 +24°C° 0 mm 2 m/s 755 mmHg 47%
    20:00 +24°C° 0 mm 3 m/s 756 mmHg 49%
    21:00 +22°C° 0 mm 3 m/s 756 mmHg 51%
    22:00 +21°C° 0 mm 3 m/s 756 mmHg 54%
    23:00 +20°C° 0 mm 3 m/s 756 mmHg 57%

    31 Janvier, Vendredi

    Heure Température Précipitation Vent Pression Humidité
    00:00 +20°C° 0 mm 3 m/s 756 mmHg 60%
    01:00 +19°C° 0 mm 2 m/s 756 mmHg 63%
    02:00 +19°C° 0 mm 2 m/s 756 mmHg 65%
    03:00 +18°C° 0 mm 2 m/s 756 mmHg 67%
    04:00 +18°C° 0 mm 2 m/s 756 mmHg 70%
    05:00 +18°C° 0 mm 1 m/s 756 mmHg 73%
    06:00 +16°C° 0 mm 1 m/s 756 mmHg 76%
    07:00 +17°C° 0 mm 2 m/s 757 mmHg 71%
    08:00 +18°C° 0 mm 3 m/s 758 mmHg 66%
    09:00 +19°C° 0 mm 3 m/s 758 mmHg 61%
    10:00 +21°C° 0 mm 3 m/s 758 mmHg 55%
    11:00 +22°C° 0 mm 3 m/s 758 mmHg 49%
    12:00 +25°C° 0 mm 3 m/s 758 mmHg 42%
    13:00 +25°C° 0 mm 3 m/s 757 mmHg 37%
    14:00 +26°C° 0 mm 3 m/s 757 mmHg 32%
    15:00 +27°C° 0 mm 3 m/s 756 mmHg 28%
    16:00 +25°C° 0 mm 3 m/s 756 mmHg 31%
    17:00 +24°C° 0 mm 3 m/s 756 mmHg 34%
    18:00 +22°C° 0 mm 3 m/s 756 mmHg 37%
    19:00 +21°C° 0 mm 3 m/s 756 mmHg 40%
    20:00 +20°C° 0 mm 3 m/s 757 mmHg 44%
    21:00 +19°C° 0 mm 2 m/s 757 mmHg 48%
    22:00 +18°C° 0 mm 2 m/s 758 mmHg 51%
    23:00 +18°C° 0 mm 2 m/s 758 mmHg 53%

    1 Février, Samedi

    Heure Température Précipitation Vent Pression Humidité
    00:00 +17°C° 0 mm 2 m/s 758 mmHg 56%
    01:00 +17°C° 0 mm 2 m/s 757 mmHg 58%
    02:00 +16°C° 0 mm 2 m/s 757 mmHg 60%
    03:00 +16°C° 0 mm 2 m/s 757 mmHg 62%
    04:00 +15°C° 0 mm 2 m/s 757 mmHg 64%
    05:00 +15°C° 0 mm 2 m/s 758 mmHg 67%
    06:00 +15°C° 0 mm 2 m/s 758 mmHg 69%
    07:00 +16°C° 0 mm 2 m/s 758 mmHg 64%
    08:00 +18°C° 0 mm 2 m/s 759 mmHg 59%
    09:00 +19°C° 0 mm 3 m/s 760 mmHg 53%
    10:00 +21°C° 0 mm 2 m/s 760 mmHg 48%
    11:00 +24°C° 0 mm 2 m/s 760 mmHg 42%
    12:00 +26°C° 0 mm 1 m/s 759 mmHg 37%
    13:00 +26°C° 0 mm 2 m/s 759 mmHg 33%
    14:00 +27°C° 0 mm 2 m/s 758 mmHg 29%
    15:00 +27°C° 0 mm 3 m/s 758 mmHg 25%
    16:00 +26°C° 0 mm 3 m/s 757 mmHg 28%
    17:00 +24°C° 0 mm 3 m/s 757 mmHg 30%
    18:00 +22°C° 0 mm 3 m/s 757 mmHg 33%
    19:00 +21°C° 0 mm 3 m/s 758 mmHg 35%
    20:00 +20°C° 0 mm 3 m/s 759 mmHg 37%
    21:00 +19°C° 0 mm 3 m/s 759 mmHg 39%
    22:00 +19°C° 0 mm 3 m/s 759 mmHg 40%
    23:00 +18°C° 0 mm 3 m/s 759 mmHg 42%

    2 Février, Dimanche

    Heure Température Précipitation Vent Pression Humidité
    00:00 +17°C° 0 mm 3 m/s 759 mmHg 44%
    01:00 +17°C° 0 mm 3 m/s 759 mmHg 44%
    02:00 +17°C° 0 mm 3 m/s 759 mmHg 45%
    03:00 +17°C° 0 mm 3 m/s 759 mmHg 46%
    04:00 +16°C° 0 mm 3 m/s 759 mmHg 48%
    05:00 +16°C° 0 mm 2 m/s 759 mmHg 49%
    06:00 +16°C° 0 mm 2 m/s 759 mmHg 51%
    07:00 +17°C° 0 mm 2 m/s 760 mmHg 50%
    08:00 +18°C° 0 mm 3 m/s 760 mmHg 50%
    09:00 +18°C° 0 mm 3 m/s 761 mmHg 49%
    10:00 +20°C° 0 mm 3 m/s 761 mmHg 43%
    11:00 +22°C° 0 mm 3 m/s 761 mmHg 36%
    12:00 +25°C° 0 mm 4 m/s 761 mmHg 30%
    13:00 +26°C° 0 mm 4 m/s 760 mmHg 28%
    14:00 +26°C° 0 mm 5 m/s 759 mmHg 25%
    15:00 +27°C° 0 mm 5 m/s 759 mmHg 23%
    16:00 +25°C° 0 mm 4 m/s 758 mmHg 25%
    17:00 +23°C° 0 mm 4 m/s 758 mmHg 28%
    18:00 +21°C° 0 mm 3 m/s 758 mmHg 30%
    19:00 +20°C° 0 mm 3 m/s 759 mmHg 33%
    20:00 +19°C° 0 mm 3 m/s 759 mmHg 36%
    21:00 +18°C° 0 mm 3 m/s 760 mmHg 39%
    22:00 +18°C° 0 mm 3 m/s 760 mmHg 42%
    23:00 +17°C° 0 mm 3 m/s 760 mmHg 44%
    Voir plus